TimeEDT,TemperatureF,Dew PointF,Humidity,Sea Level PressureIn,VisibilityMPH,Wind Direction,Wind SpeedMPH,Gust SpeedMPH,PrecipitationIn,Events,Conditions,WindDirDegrees,DateUTC
12:53 AM,37.9,36.0,93,30.12,9.0,Calm,Calm,-,N/A,,Clear,0,2011-10-28 04:53:00
1:53 AM,33.1,32.0,96,30.15,5.0,SW,4.6,-,N/A,,Clear,230,2011-10-28 05:53:00
2:53 AM,34.0,32.0,92,30.15,9.0,South,5.8,-,N/A,,Clear,180,2011-10-28 06:53:00
4:53 AM,33.1,32.0,96,30.16,7.0,South,3.5,-,N/A,,Clear,180,2011-10-28 08:53:00
5:53 AM,34.0,32.0,92,30.16,6.0,Calm,Calm,-,N/A,,Clear,0,2011-10-28 09:53:00
6:53 AM,33.1,32.0,96,30.17,5.0,Calm,Calm,-,N/A,,Clear,0,2011-10-28 10:53:00
7:53 AM,34.0,33.1,96,30.19,6.0,Calm,Calm,-,N/A,,Clear,0,2011-10-28 11:53:00
8:53 AM,33.1,32.0,96,30.20,5.0,South,3.5,-,N/A,,Clear,170,2011-10-28 12:53:00
9:53 AM,34.0,34.0,100,30.22,3.0,Calm,Calm,-,N/A,,Clear,0,2011-10-28 13:53:00
10:53 AM,39.0,36.0,89,30.22,9.0,South,3.5,-,N/A,,Clear,180,2011-10-28 14:53:00
11:53 AM,43.0,39.0,86,30.20,9.0,Calm,Calm,-,N/A,,Clear,0,2011-10-28 15:53:00
12:53 PM,46.0,37.9,73,30.20,10.0,SSW,4.6,-,N/A,,Clear,210,2011-10-28 16:53:00
1:53 PM,48.0,35.1,61,30.15,10.0,Calm,Calm,-,N/A,,Scattered Clouds,0,2011-10-28 17:53:00
2:53 PM,50.0,34.0,54,30.13,7.0,Calm,Calm,-,N/A,,Scattered Clouds,0,2011-10-28 18:53:00
3:53 PM,51.1,32.0,48,30.11,10.0,Calm,Calm,-,N/A,,Partly Cloudy,0,2011-10-28 19:53:00
4:53 PM,48.9,30.9,50,30.12,10.0,Calm,Calm,-,N/A,,Scattered Clouds,0,2011-10-28 20:53:00
5:53 PM,48.9,30.9,50,30.11,10.0,Calm,Calm,-,N/A,,Clear,0,2011-10-28 21:53:00
6:53 PM,46.9,30.9,54,30.12,8.0,Calm,Calm,-,N/A,,Clear,0,2011-10-28 22:53:00
7:53 PM,43.0,34.0,71,30.12,10.0,Calm,Calm,-,N/A,,Partly Cloudy,0,2011-10-28 23:53:00
8:53 PM,39.9,35.1,83,30.13,10.0,South,3.5,-,N/A,,Partly Cloudy,170,2011-10-29 00:53:00
9:53 PM,39.9,34.0,79,30.13,10.0,SSE,3.5,-,N/A,,Clear,160,2011-10-29 01:53:00
10:53 PM,37.9,33.1,83,30.12,10.0,SSE,8.1,-,N/A,,Clear,160,2011-10-29 02:53:00
11:53 PM,37.0,33.1,86,30.11,10.0,SSE,5.8,-,N/A,,Clear,160,2011-10-29 03:53:00